Weather History for Marion, VA

Change the Weather History Date:

Saturday, April 12, 2014

  Actual Average (KGEV) Record (KGEV)
Temperature  
Mean Temperature 60 °F -  
Max Temperature 73 °F 63 °F 80 °F (1977)
Min Temperature 47 °F 35 °F 16 °F (1989)
Degree Days  
Heating Degree Days 5    
Growing Degree Days 10 (Base 50)    
Moisture  
Dew Point 42 °F    
Average Humidity 49    
Maximum Humidity 75    
Minimum Humidity 31    
Precipitation  
Precipitation 0.00 in - - ()
Sea Level Pressure  
Sea Level Pressure 30.21 in    
Wind  
Wind Speed 5 mph (SSW)    
Max Wind Speed 16 mph    
Max Gust Speed 24 mph    
Visibility 10 miles    
Events      
Averages and records for this station are not official NWS values.
T = Trace of Precipitation, MM = Missing Value Source: NWS Daily Summary

Daily Weather History Graph

Daily Weather History Graph

Search for Another Location

Airport:

Trip Planner

Search our weather history database for the weather conditions in past years. The results will help you decide how hot, cold, wet, or windy it might be!

Date:

Astronomy

Apr. 12, 2014 Rise Set
Actual Time 6:55 AM EDT 7:57 PM EDT
Civil Twilight 6:28 AM EDT 8:24 PM EDT
Nautical Twilight 5:57 AM EDT 8:55 PM EDT
Astronomical Twilight 5:24 AM EDT 9:28 PM EDT
Moon 5:37 PM EDT (4/12) 5:17 AM EDT (4/12)
Length of Visible Light 13h 55m
Length of Day
13h 02m
Waxing Gibbous, 93% of the Moon is Illuminated
Apr 12
Waxing Gibbous
Apr 15
Full
Apr 22
Last Quarter
Apr 29
New
May 6
First Quarter

Hourly Weather History & Observations

Time (EDT) Temp. Dew Point Humidity Pressure Visibility Wind Dir Wind Speed Gust Speed Precip Events Conditions
12:15 AM 53.4 °F 38.5 °F 57% 30.19 in 10.0 mi West 3.5 mph - N/A   Mostly Cloudy
12:35 AM 52.3 °F 38.3 °F 59% 30.19 in 10.0 mi West 4.6 mph - N/A   Scattered Clouds
12:55 AM 52.3 °F 37.8 °F 58% 30.18 in 10.0 mi West 6.9 mph - N/A   Clear
1:15 AM 52.0 °F 37.6 °F 58% 30.19 in 10.0 mi WSW 5.8 mph - N/A   Clear
1:35 AM 53.8 °F 36.5 °F 52% 30.18 in 10.0 mi WSW 5.8 mph - N/A   Clear
1:55 AM 54.5 °F 36.0 °F 50% 30.18 in 10.0 mi WSW 5.8 mph - N/A   Clear
2:15 AM 53.6 °F 36.5 °F 52% 30.19 in 10.0 mi West 3.5 mph - N/A   Clear
2:35 AM 52.9 °F 36.9 °F 55% 30.18 in 10.0 mi Calm Calm - N/A   Clear
2:55 AM 52.2 °F 37.4 °F 57% 30.18 in 10.0 mi WNW 3.5 mph - N/A   Clear
3:15 AM 52.5 °F 37.4 °F 56% 30.18 in 10.0 mi Calm Calm - N/A   Clear
3:35 AM 53.6 °F 37.0 °F 53% 30.18 in 10.0 mi Calm Calm - N/A   Clear
3:55 AM 51.8 °F 37.9 °F 59% 30.18 in 10.0 mi West 5.8 mph - N/A   Clear
4:15 AM 49.8 °F 38.1 °F 64% 30.19 in 10.0 mi Calm Calm - N/A   Clear
4:35 AM 49.5 °F 38.3 °F 65% 30.20 in 10.0 mi Calm Calm - N/A   Clear
4:55 AM 49.3 °F 38.3 °F 66% 30.20 in 10.0 mi Calm Calm - N/A   Clear
5:15 AM 48.6 °F 38.1 °F 67% 30.21 in 10.0 mi Calm Calm - N/A   Clear
5:35 AM 50.2 °F 38.5 °F 64% 30.21 in 10.0 mi Calm Calm - N/A   Clear
5:55 AM 51.3 °F 38.8 °F 63% 30.21 in 10.0 mi Calm Calm - N/A   Clear
6:15 AM 50.2 °F 38.8 °F 65% 30.22 in 10.0 mi Calm Calm - N/A   Clear
6:35 AM 48.7 °F 39.0 °F 69% 30.23 in 10.0 mi WSW 4.6 mph - N/A   Clear
6:55 AM 47.7 °F 39.2 °F 72% 30.24 in 10.0 mi West 3.5 mph - N/A   Clear
7:15 AM 48.7 °F 39.9 °F 72% 30.25 in 10.0 mi WNW 3.5 mph - N/A   Mostly Cloudy
7:35 AM 48.7 °F 40.8 °F 74% 30.26 in 10.0 mi West 3.5 mph - N/A   Mostly Cloudy
7:55 AM 50.2 °F 42.6 °F 75% 30.27 in 10.0 mi West 4.6 mph - N/A   Mostly Cloudy
8:15 AM 52.0 °F 44.2 °F 75% 30.28 in 10.0 mi WSW 5.8 mph - N/A   Scattered Clouds
8:35 AM 54.9 °F 45.0 °F 69% 30.28 in 10.0 mi WSW 6.9 mph - N/A   Clear
8:55 AM 56.7 °F 45.5 °F 66% 30.29 in 10.0 mi WSW 6.9 mph - N/A   Clear
9:15 AM 58.1 °F 46.6 °F 65% 30.29 in 10.0 mi WSW 9.2 mph - N/A   Clear
9:35 AM 59.5 °F 47.5 °F 64% 30.29 in 10.0 mi WSW 8.1 mph - N/A   Scattered Clouds
9:55 AM 60.8 °F 47.3 °F 61% 30.29 in 10.0 mi WSW 9.2 mph - N/A   Scattered Clouds
10:15 AM 61.9 °F 46.8 °F 58% 30.29 in 10.0 mi SSW 5.8 mph - N/A   Clear
10:35 AM 62.8 °F 46.8 °F 56% 30.30 in 10.0 mi SW 3.5 mph - N/A   Clear
10:55 AM 64.9 °F 47.7 °F 54% 30.30 in 10.0 mi SSW 3.5 mph - N/A   Clear
11:15 AM 66.0 °F 47.5 °F 51% 30.30 in 10.0 mi West 3.5 mph - N/A   Clear
11:35 AM 66.2 °F 47.3 °F 51% 30.29 in 10.0 mi Calm Calm - N/A   Clear
11:55 AM 68.0 °F 45.5 °F 44% 30.28 in 10.0 mi Calm Calm - N/A   Clear
12:15 PM 68.4 °F 46.6 °F 46% 30.27 in 10.0 mi Calm Calm - N/A   Scattered Clouds
12:35 PM 67.5 °F 47.3 °F 48% 30.26 in 10.0 mi ENE 6.9 mph - N/A   Mostly Cloudy
12:55 PM 68.0 °F 46.4 °F 46% 30.26 in 10.0 mi Calm Calm - N/A   Mostly Cloudy
1:15 PM 70.5 °F 46.2 °F 42% 30.24 in 10.0 mi NNE 8.1 mph - N/A   Scattered Clouds
1:35 PM 70.3 °F 46.0 °F 42% 30.23 in 10.0 mi ESE 9.2 mph - N/A   Scattered Clouds
1:55 PM 70.2 °F 45.1 °F 41% 30.23 in 10.0 mi ESE 9.2 mph - N/A   Mostly Cloudy
2:15 PM 70.5 °F 45.3 °F 40% 30.22 in 10.0 mi ESE 10.4 mph 18.4 mph N/A   Overcast
2:35 PM 71.4 °F 44.6 °F 38% 30.21 in 10.0 mi SSE 10.4 mph 16.1 mph N/A   Mostly Cloudy
2:55 PM 70.9 °F 44.4 °F 39% 30.20 in 10.0 mi ESE 5.8 mph - N/A   Mostly Cloudy
3:15 PM 72.5 °F 43.5 °F 35% 30.19 in 10.0 mi SE 3.5 mph - N/A   Mostly Cloudy
3:35 PM 72.1 °F 42.6 °F 34% 30.18 in 10.0 mi South 5.8 mph - N/A   Mostly Cloudy
3:55 PM 73.0 °F 43.0 °F 34% 30.18 in 10.0 mi South 9.2 mph - N/A   Overcast
4:15 PM 72.3 °F 41.5 °F 33% 30.17 in 10.0 mi South 5.8 mph 16.1 mph N/A   Mostly Cloudy
4:35 PM 73.4 °F 41.0 °F 31% 30.16 in 10.0 mi South 10.4 mph 17.3 mph N/A   Mostly Cloudy
4:55 PM 72.5 °F 40.1 °F 31% 30.16 in 10.0 mi South 13.8 mph 18.4 mph N/A   Mostly Cloudy
5:15 PM 73.6 °F 41.0 °F 31% 30.16 in 10.0 mi South 12.7 mph 24.2 mph N/A   Mostly Cloudy
5:35 PM 72.5 °F 40.5 °F 31% 30.15 in 10.0 mi South 11.5 mph 18.4 mph N/A   Mostly Cloudy
5:55 PM 72.0 °F 42.1 °F 34% 30.16 in 10.0 mi South 12.7 mph 18.4 mph N/A   Mostly Cloudy
6:15 PM 71.8 °F 41.4 °F 33% 30.15 in 10.0 mi SSE 10.4 mph 17.3 mph N/A   Scattered Clouds
6:35 PM 71.6 °F 41.7 °F 34% 30.16 in 10.0 mi SSE 6.9 mph 17.3 mph N/A   Scattered Clouds
6:55 PM 70.7 °F 41.5 °F 35% 30.16 in 10.0 mi South 6.9 mph - N/A   Scattered Clouds
7:15 PM 70.3 °F 41.2 °F 35% 30.16 in 10.0 mi SSE 4.6 mph - N/A   Clear
7:35 PM 69.8 °F 40.6 °F 35% 30.16 in 10.0 mi SSE 4.6 mph 16.1 mph N/A   Clear
7:55 PM 68.9 °F 41.0 °F 36% 30.16 in 10.0 mi SSE 4.6 mph - N/A   Clear
8:15 PM 67.8 °F 40.8 °F 37% 30.16 in 10.0 mi Calm Calm - N/A   Clear
8:35 PM 67.8 °F 40.8 °F 37% 30.17 in 10.0 mi SSE 4.6 mph - N/A   Clear
8:55 PM 67.3 °F 41.0 °F 38% 30.17 in 10.0 mi Calm Calm - N/A   Clear
9:15 PM 67.1 °F 40.8 °F 38% 30.17 in 10.0 mi SSE 4.6 mph - N/A   Clear
9:35 PM 66.7 °F 40.5 °F 38% 30.18 in 10.0 mi SSE 5.8 mph - N/A   Clear
9:55 PM 66.4 °F 40.8 °F 39% 30.18 in 10.0 mi South 4.6 mph - N/A   Clear
10:15 PM 66.4 °F 41.0 °F 40% 30.18 in 10.0 mi SSE 5.8 mph 18.4 mph N/A   Clear
10:35 PM 66.2 °F 41.4 °F 40% 30.18 in 10.0 mi South 6.9 mph 17.3 mph N/A   Clear
10:55 PM 65.5 °F 41.2 °F 41% 30.18 in 10.0 mi SSE 11.5 mph 17.3 mph N/A   Clear
11:15 PM 65.8 °F 41.0 °F 40% 30.17 in 10.0 mi SSE 11.5 mph 18.4 mph N/A   Clear
11:35 PM 65.7 °F 40.6 °F 40% 30.17 in 10.0 mi SSE 11.5 mph 20.7 mph N/A   Clear
11:55 PM 66.2 °F 40.3 °F 39% 30.16 in 10.0 mi South 16.1 mph 24.2 mph N/A   Clear